Theta_e
316 316 315 314 314 314 313 312 312 312 310 309 308 307 307 307 307 307 308 306 305 307 307 307 308 308 308 308 307 309 312 316 317 316 318 315 312 313 313 313 314 313 313 313 313 313 314 315 315 315 316 316 318 319 318 319 318 319 320 317 315 316 317 317 318 317 317 318 315 314 315 315 316 314 313 314 313 314 315 315 316 316 315 317 316 316 323 327
316 315 315 314 314 314 313 312 311 311 309 309 308 307 307 307 307 307 308 307 305 306 307 307 308 308 308 307 308 310 314 318 319 317 317 313 312 313 313 314 314 313 313 315 314 314 314 315 315 315 315 316 317 318 318 319 318 319 320 317 316 319 318 318 318 317 317 318 316 315 315 316 316 315 315 314 315 315 315 315 316 315 315 316 316 317 321 325
315 315 315 314 314 314 313 312 311 310 309 309 308 307 307 307 307 307 307 307 305 305 307 308 307 308 307 308 308 311 316 319 318 317 315 312 312 312 313 314 314 314 314 315 315 314 315 314 315 316 315 315 316 317 318 318 318 318 319 317 318 319 317 316 317 316 315 316 317 315 314 315 315 315 315 315 315 316 315 316 316 316 316 317 316 318 321 324
315 315 315 314 314 313 313 312 311 311 310 309 308 307 307 307 307 306 307 306 305 305 306 307 307 308 307 308 308 311 318 319 316 316 313 311 312 313 314 314 314 314 313 313 313 313 315 314 315 315 315 315 315 316 317 316 317 317 316 316 317 317 316 315 315 315 314 315 316 316 314 315 315 315 315 315 315 316 316 315 317 316 316 318 317 319 321 323
315 315 314 314 313 313 313 312 312 311 310 310 308 308 307 307 307 306 306 306 305 305 306 307 307 308 307 308 308 312 318 316 315 316 312 311 312 313 314 314 314 314 314 313 314 314 314 315 315 315 315 315 315 315 315 314 316 316 315 315 315 316 316 314 313 313 312 314 316 315 314 315 314 314 315 315 315 315 316 315 316 316 316 320 319 321 322 322
316 315 314 313 313 312 312 313 312 311 311 310 308 307 307 307 307 306 306 305 305 305 306 307 307 307 307 308 308 312 316 313 314 315 312 311 312 313 315 314 314 314 313 313 314 315 315 315 314 315 315 315 315 315 315 314 315 316 315 314 314 315 316 313 313 312 312 314 316 315 315 315 314 314 315 314 315 316 315 315 316 315 316 320 321 322 322 322
315 315 314 312 312 312 312 312 312 311 310 310 308 308 307 307 306 306 306 305 305 305 306 307 307 307 308 308 309 313 315 313 314 314 312 312 312 313 315 314 314 313 313 314 315 315 315 315 314 315 315 314 315 315 315 314 315 316 315 314 314 314 314 313 312 311 311 314 315 314 314 314 315 315 314 314 315 315 314 315 315 314 314 317 321 323 322 322
314 314 313 312 312 311 311 312 311 311 310 309 308 308 307 307 306 306 305 305 305 305 306 307 306 307 308 310 314 315 313 315 315 313 311 312 312 313 315 314 314 313 314 314 315 315 314 315 315 315 315 314 315 315 315 315 315 316 315 314 314 314 313 311 311 311 312 313 313 313 314 314 315 314 313 314 315 315 315 315 315 314 313 315 318 321 321 322
314 314 313 312 311 310 311 311 311 311 310 309 308 308 307 307 306 306 305 305 305 305 306 306 307 308 308 312 317 314 314 316 314 313 312 312 313 314 315 315 314 314 315 315 315 315 315 315 315 315 315 314 315 315 314 315 315 316 315 314 314 314 312 312 312 312 312 313 313 314 315 315 314 312 314 315 315 316 315 314 314 314 313 314 316 318 321 322
314 314 313 312 311 310 310 311 311 310 310 309 308 308 307 307 306 305 305 305 305 306 306 307 307 308 309 313 315 313 316 316 314 313 312 312 314 314 314 314 314 315 316 315 316 316 316 316 315 316 316 315 315 315 314 315 315 315 315 315 315 314 313 313 313 313 313 313 313 314 315 315 313 313 315 317 315 314 314 314 314 314 314 314 314 316 320 322
314 313 312 312 310 309 309 310 310 309 309 309 309 308 308 307 306 305 305 305 305 306 307 307 308 309 311 314 312 314 317 316 315 312 312 312 314 315 315 314 314 316 316 316 316 316 316 316 315 316 316 315 314 314 314 314 314 315 315 315 314 315 314 313 314 313 314 314 313 314 316 315 314 313 316 317 314 314 315 315 315 314 314 315 315 316 319 322
313 313 312 311 309 309 309 310 309 308 308 309 309 308 307 306 305 305 305 305 306 306 307 309 309 309 312 312 313 317 316 315 314 312 312 313 314 315 314 314 314 316 317 316 315 314 314 315 316 315 315 315 315 314 314 313 315 315 315 316 315 315 315 314 315 314 315 315 313 314 315 316 316 315 317 317 314 315 315 316 316 316 315 316 316 316 318 320
313 313 312 311 310 309 309 309 309 308 309 309 308 308 307 306 305 305 305 305 306 306 307 309 309 310 311 312 316 317 315 314 313 312 313 314 314 314 313 314 314 315 316 316 314 313 313 314 316 315 315 316 315 314 314 314 315 315 316 317 316 315 316 316 316 314 315 314 313 314 313 315 319 318 317 316 314 315 315 316 316 316 316 316 317 317 317 318
313 312 312 311 310 309 309 309 308 309 310 309 309 309 308 306 306 305 306 306 306 307 308 309 310 310 311 312 315 316 315 313 313 312 313 313 314 314 313 314 314 314 315 314 313 313 313 315 316 315 314 315 314 313 315 315 315 317 316 316 317 314 314 317 315 314 316 313 313 315 312 315 319 318 315 314 314 315 315 316 316 317 317 317 317 317 316 317
313 312 312 311 310 309 308 308 308 310 310 309 310 310 307 306 306 306 307 306 307 308 308 310 310 311 311 311 314 316 314 312 314 313 313 314 315 315 314 314 314 314 314 313 313 313 315 316 316 316 314 313 315 315 316 316 316 317 314 313 317 314 314 317 315 314 316 313 313 315 313 316 318 317 314 313 313 314 315 317 317 317 318 317 317 317 317 317
312 311 311 310 309 309 309 308 309 309 310 310 310 309 307 307 307 307 307 307 308 309 310 313 311 311 311 312 313 315 314 314 315 313 312 314 316 315 315 314 314 314 313 314 314 315 316 316 316 316 314 314 316 318 317 315 315 317 314 313 316 313 313 316 314 313 315 314 315 314 314 317 318 317 314 313 313 315 315 316 317 317 317 317 317 317 317 317
312 311 310 310 309 309 309 308 309 309 310 310 309 308 308 309 309 309 309 309 310 311 312 314 312 310 310 312 313 314 315 317 315 312 312 313 314 314 315 315 315 315 315 315 315 316 316 315 315 316 316 316 317 318 315 311 312 315 315 313 315 315 312 313 314 314 314 314 316 316 315 316 317 317 316 314 315 315 316 316 317 317 317 317 317 317 317 317
312 310 309 309 310 310 309 309 309 309 310 309 309 310 311 311 311 311 312 311 311 310 309 310 310 310 309 309 312 314 316 316 314 313 313 313 313 314 315 315 314 315 314 314 315 315 315 315 316 317 316 315 317 316 312 310 311 312 313 311 312 314 312 312 314 314 314 315 315 316 316 316 316 317 317 316 316 315 316 316 316 317 317 317 318 317 317 317
312 310 309 310 310 309 309 309 309 310 309 309 310 312 313 312 312 314 314 312 309 308 308 309 309 310 309 311 314 315 315 314 313 314 313 312 313 313 314 314 314 314 313 313 314 315 316 316 316 316 315 315 315 315 313 313 313 313 315 313 311 312 311 313 315 313 314 315 315 316 315 316 317 316 317 316 317 317 317 317 317 317 317 317 318 317 318 317
311 310 309 310 310 309 309 309 310 310 309 310 314 314 312 311 310 311 312 311 309 309 310 310 309 310 312 313 314 313 313 313 313 314 313 312 313 313 313 314 314 313 313 315 315 314 316 316 316 315 316 316 316 315 315 314 314 314 314 313 313 312 311 315 317 313 314 314 314 316 316 316 316 316 316 316 316 317 317 317 317 317 317 317 318 318 318 318
311 309 308 309 309 309 310 310 310 310 310 313 316 316 311 309 310 310 310 310 311 311 311 312 312 312 314 314 314 314 314 314 314 314 313 312 313 313 312 313 313 312 313 316 316 314 314 315 315 316 316 316 316 315 314 313 314 314 313 313 313 313 313 316 316 313 313 314 314 315 316 316 317 316 316 316 316 316 316 317 317 317 317 318 318 319 318 319
311 310 310 309 309 310 310 311 311 310 310 313 316 318 312 310 312 312 311 309 310 312 312 311 312 313 314 314 314 314 314 314 313 314 313 312 313 313 312 312 312 313 315 315 314 314 314 314 315 315 314 314 315 314 314 314 315 314 315 314 312 314 315 315 315 314 313 313 314 315 315 315 316 316 316 316 316 316 317 317 317 317 317 317 318 319 319 320
310 310 310 310 310 310 311 311 310 310 311 314 317 317 313 310 310 311 312 310 310 311 311 311 312 313 313 314 314 313 314 314 313 314 313 312 313 313 313 312 312 315 314 313 314 314 313 314 314 313 313 314 314 314 314 314 315 315 315 313 312 316 315 311 313 314 314 313 314 316 316 316 317 317 317 318 317 317 318 318 318 318 318 318 318 319 319 319
310 310 311 311 311 311 311 311 310 310 312 315 317 315 310 310 309 310 313 311 309 311 311 311 312 313 314 313 313 314 313 313 314 314 313 313 313 312 313 312 313 314 314 313 313 313 314 313 312 312 313 313 313 314 315 314 313 316 317 314 313 317 314 312 314 315 315 315 315 317 315 315 318 320 320 320 319 319 319 318 318 319 319 320 320 320 320 319
310 310 311 311 311 313 311 311 312 312 313 314 316 313 309 310 310 310 313 311 310 311 310 311 312 312 313 313 313 314 313 312 313 315 314 313 312 312 312 313 313 313 313 313 313 313 314 311 311 313 313 313 314 313 315 315 312 313 318 317 314 316 316 315 318 316 313 313 316 317 313 311 316 320 321 320 318 318 319 319 319 319 320 320 320 320 320 319
310 310 312 311 312 313 311 312 314 313 313 314 315 312 309 312 310 309 312 310 310 311 309 310 312 311 312 313 314 313 311 312 312 313 314 312 312 312 311 312 312 313 313 313 313 314 313 310 312 314 313 315 316 313 315 317 311 311 317 318 316 317 317 316 318 316 311 312 317 318 313 312 314 315 317 319 318 317 318 319 319 319 319 320 320 319 319 318
311 311 312 312 312 312 312 314 314 312 313 314 314 311 309 312 311 309 311 311 311 312 310 309 310 311 312 314 314 311 311 312 312 312 313 311 311 311 311 312 311 311 314 313 312 313 312 311 313 315 315 317 316 314 317 317 312 314 317 318 317 317 317 318 318 315 314 316 318 318 317 314 313 314 318 318 317 317 317 317 318 318 319 320 320 319 319 318
313 311 312 313 312 312 312 313 313 312 312 313 311 310 310 311 311 309 310 312 313 313 312 309 308 310 312 313 312 311 311 311 313 313 311 310 311 311 312 313 311 312 313 312 311 313 313 313 314 315 315 316 315 315 318 316 314 317 317 317 318 318 319 319 318 316 318 318 316 318 319 314 312 315 319 318 316 317 317 316 317 317 321 320 319 319 317 316
314 313 313 313 312 311 312 312 313 313 312 311 309 309 311 311 312 309 309 312 315 312 311 310 309 310 312 311 311 311 310 311 313 313 310 310 311 311 311 312 312 313 312 311 314 315 314 313 313 315 315 315 315 313 316 317 316 316 316 317 319 319 319 319 318 316 317 317 315 318 317 312 310 312 317 317 315 316 317 316 317 320 321 320 319 318 315 313
315 314 313 313 312 311 312 312 313 313 311 309 309 310 312 312 310 309 311 313 315 313 310 309 310 311 311 310 310 310 310 312 312 312 311 311 311 310 310 311 312 313 312 313 315 314 312 310 312 314 314 314 313 312 314 317 316 317 318 319 319 319 319 318 317 316 315 315 316 318 316 311 309 312 317 317 315 317 317 316 318 320 321 320 318 317 314 312
315 314 312 312 313 312 312 313 313 311 309 309 310 311 313 312 308 309 312 313 313 314 310 309 311 311 311 311 311 311 311 313 312 312 312 312 312 311 311 311 312 314 314 314 315 315 314 313 313 313 312 313 314 313 314 315 316 319 320 318 316 317 318 317 317 318 315 314 316 316 318 316 311 312 317 317 316 318 318 317 318 319 321 321 318 315 314 312
315 314 312 311 313 313 313 314 313 311 309 310 312 313 311 310 310 311 312 310 312 314 312 312 313 312 311 312 312 311 312 314 313 313 314 313 313 312 312 313 313 314 314 314 315 316 315 316 315 313 311 313 316 315 314 315 317 319 318 315 314 313 315 316 318 319 316 314 315 314 317 318 314 313 317 317 317 317 317 318 318 319 319 320 319 317 314 312
315 314 312 311 312 313 313 313 312 310 309 312 315 313 310 310 311 312 311 310 313 315 314 314 313 312 312 312 313 312 313 313 313 314 314 314 315 314 313 314 314 315 314 313 316 316 316 317 316 314 312 312 315 316 315 315 315 317 315 315 314 312 313 316 316 316 315 314 314 314 316 317 314 314 317 317 317 317 318 318 319 320 320 320 320 318 315 313
316 315 313 312 312 313 313 313 311 309 310 313 315 312 311 312 312 312 312 313 314 314 314 314 313 312 312 313 314 313 313 314 313 314 315 315 316 316 315 314 314 316 315 314 316 316 316 317 317 316 314 313 316 317 317 317 316 316 316 316 314 312 312 314 314 313 314 314 313 313 315 315 314 314 317 317 317 317 317 317 318 320 320 320 320 318 316 314
316 316 314 313 313 313 313 312 311 310 311 315 314 311 312 313 312 312 313 315 314 313 313 313 313 313 313 314 314 312 313 314 314 314 316 316 316 316 316 315 314 315 315 314 315 316 315 316 317 317 315 315 316 317 318 318 316 316 318 318 317 315 313 312 313 313 313 314 314 315 315 315 315 315 316 316 316 315 316 317 317 317 318 318 319 319 317 315
317 316 316 314 313 313 313 312 311 310 313 315 313 311 312 312 313 313 313 315 315 314 313 313 314 314 314 315 314 313 313 316 315 315 316 316 316 316 316 316 314 314 314 314 314 315 315 315 316 315 315 313 313 315 316 316 316 316 318 317 317 317 315 313 314 313 313 313 314 314 314 314 313 315 316 316 315 315 316 317 316 316 318 318 320 321 320 317
316 316 316 315 314 314 313 312 311 311 314 317 314 311 312 312 313 314 314 314 314 314 314 314 315 315 315 315 315 314 314 315 315 315 315 316 316 316 316 317 315 314 314 314 314 316 314 315 315 314 315 313 310 313 315 314 316 317 317 316 316 316 315 312 313 314 315 315 314 313 313 313 311 314 318 317 316 316 316 316 316 317 318 319 322 323 322 321
316 315 316 315 314 314 314 313 312 312 315 317 316 312 312 313 313 313 314 314 314 314 315 315 316 315 316 315 314 314 313 314 315 315 316 315 315 315 316 316 316 314 314 313 314 316 315 315 315 312 314 314 311 313 315 314 314 316 316 316 315 316 315 313 313 314 315 316 316 314 313 312 312 313 315 316 316 316 316 316 316 316 317 319 321 321 323 321
315 315 316 315 313 313 313 312 313 314 315 316 316 314 313 313 315 315 314 314 314 314 314 315 316 316 316 316 315 315 313 314 315 315 315 316 315 316 315 315 316 315 313 313 313 314 314 314 315 311 312 314 312 313 315 315 314 314 315 316 315 316 315 314 314 313 313 315 316 315 313 312 313 314 314 315 315 315 316 316 317 316 317 319 319 321 325 322
314 316 317 315 314 313 312 312 313 315 315 315 314 314 315 316 317 315 314 315 316 315 314 315 316 316 316 317 316 315 314 316 316 315 316 316 315 316 316 314 316 315 314 313 313 314 314 312 314 314 312 314 314 314 315 316 315 313 313 315 315 315 314 315 316 314 314 315 314 315 314 313 314 315 315 316 316 316 316 316 317 319 318 318 321 324 325 321
314 315 315 315 314 313 312 312 314 315 314 314 314 315 316 318 317 315 315 317 318 315 313 315 316 316 317 318 316 316 315 316 317 316 316 316 316 316 316 314 316 316 314 314 314 314 314 312 314 315 313 315 317 316 315 316 317 315 313 314 315 315 314 316 317 316 315 315 314 315 316 314 314 316 315 315 315 315 317 317 317 319 319 321 325 324 321 319
314 314 314 314 313 313 312 312 312 314 314 313 314 315 315 316 317 316 315 316 318 316 313 315 316 316 317 317 316 317 316 315 317 317 316 317 316 316 316 315 316 315 314 314 314 314 314 313 314 316 316 316 316 313 311 312 315 316 316 315 315 316 315 315 317 316 315 316 316 316 317 317 318 319 318 317 319 319 319 320 319 319 319 321 322 319 316 316
315 314 314 313 312 313 313 311 309 311 312 312 312 314 314 316 317 317 315 314 316 317 315 315 316 316 317 316 316 317 315 315 317 316 316 317 316 316 315 315 314 314 314 315 314 314 314 313 313 314 316 316 314 312 311 311 313 316 317 316 317 316 316 315 315 315 317 317 316 316 317 318 320 323 321 319 322 321 318 317 318 319 319 318 318 316 315 314
315 314 313 313 312 313 314 311 309 310 310 310 311 312 313 314 315 316 316 315 316 316 315 315 316 316 317 317 317 316 315 316 317 316 317 317 316 315 314 313 314 314 314 315 315 314 314 314 314 314 315 317 317 315 314 314 314 315 316 316 317 317 317 317 316 315 317 318 317 317 317 317 319 321 318 316 318 319 316 315 315 316 318 317 317 317 315 314
314 314 313 313 312 313 314 312 310 310 310 309 311 311 312 312 313 314 315 316 317 317 316 316 317 316 317 317 317 316 316 316 317 318 316 317 317 315 313 315 314 313 315 318 317 314 314 314 314 314 316 318 319 318 318 317 315 314 315 316 317 317 317 318 317 316 317 318 318 318 316 315 316 317 315 315 316 316 316 315 314 314 316 317 317 317 316 315
312 313 313 313 313 314 315 313 310 309 309 309 310 310 311 312 312 312 313 314 316 316 317 318 318 316 316 316 316 317 317 316 318 319 317 317 318 315 314 316 314 313 318 321 318 314 314 316 315 315 316 316 317 321 321 319 316 316 316 317 317 317 318 318 317 317 317 317 317 318 317 316 316 316 315 316 316 316 316 316 315 315 317 318 318 318 316 314
310 312 313 314 314 314 315 313 311 309 309 309 310 311 311 311 312 312 312 313 314 315 316 317 318 316 316 315 315 317 317 316 318 320 319 318 318 315 313 314 316 317 318 318 317 316 315 317 317 317 318 316 316 321 321 319 319 318 318 318 318 318 319 320 319 318 317 317 317 318 319 319 317 316 316 316 317 317 317 317 317 316 317 319 321 321 319 316
309 310 311 312 313 315 315 314 312 311 310 310 311 311 311 311 311 313 313 313 313 315 316 317 317 318 318 316 315 316 317 318 318 319 319 320 318 315 313 313 315 316 316 315 317 317 316 316 317 318 319 318 316 319 320 320 321 320 319 319 319 319 320 320 320 318 318 318 318 317 319 320 318 316 316 317 317 317 317 316 316 316 317 319 321 322 322 321
308 308 309 309 311 313 314 313 312 312 311 311 310 311 311 312 311 312 313 313 313 314 316 317 317 317 319 318 317 317 317 318 318 318 319 320 318 316 316 315 314 313 313 314 317 318 316 315 316 318 319 319 318 319 320 321 321 321 321 321 319 319 319 319 318 318 318 318 318 317 319 319 318 317 317 317 317 317 316 316 315 316 316 317 318 319 321 321
307 308 308 309 309 311 312 313 313 313 312 311 311 311 311 311 312 312 313 314 314 314 315 316 316 316 317 319 319 320 319 317 317 318 319 318 316 316 316 316 315 314 313 314 316 317 316 315 318 318 318 319 319 318 320 321 320 320 320 320 320 320 320 320 319 318 319 319 318 318 320 319 317 317 318 317 317 317 316 316 316 315 316 316 316 317 318 319
306 305 306 308 310 310 311 313 313 313 313 312 312 312 311 312 313 312 312 313 314 314 314 314 315 315 316 317 319 320 319 317 319 320 321 319 318 318 318 317 317 316 313 313 316 316 314 316 319 317 316 318 318 319 320 319 318 319 319 318 319 320 321 321 320 319 319 319 319 319 320 319 317 317 318 318 317 317 316 316 316 316 316 316 316 316 317 317
304 303 304 307 309 309 310 312 312 313 313 312 311 312 312 312 312 312 313 313 313 313 314 314 314 315 317 318 317 317 317 318 318 319 319 320 319 320 320 318 318 317 314 312 315 315 314 314 315 316 317 317 320 322 320 317 317 318 317 316 317 318 319 320 320 319 319 319 319 320 319 317 317 317 317 317 317 317 317 317 317 317 317 317 317 317 317 317
Wind_Speed
12 10 9 7 6 5 6 7 7 7 8 7 7 7 7 7 7 7 7 7 7 8 8 7 6 6 4 4 3 2 5 6 6 6 4 3 6 5 4 3 2 2 2 3 6 6 4 5 4 3 3 3 0 1 1 1 1 2 3 4 3 3 2 2 4 3 2 4 9 10 10 9 6 7 4 3 5 4 3 5 4 2 2 5 8 8 10 11
12 11 10 8 6 5 6 7 7 8 8 7 8 8 8 8 7 7 7 7 8 8 8 7 7 6 4 4 2 3 6 5 6 5 4 6 6 4 4 3 2 2 3 3 5 7 5 4 6 5 4 3 1 1 2 0 1 3 3 5 2 2 3 3 2 4 3 1 9 10 9 7 4 6 6 5 8 8 7 7 7 7 6 8 8 9 11 12
11 11 12 9 6 5 6 7 8 8 8 8 9 9 8 8 7 8 7 8 7 8 8 7 7 6 5 4 3 4 6 5 6 5 5 6 4 4 3 2 2 2 2 1 3 5 3 2 6 6 3 2 1 2 4 0 1 1 2 4 1 5 5 5 4 6 5 3 7 10 7 5 2 4 6 6 6 7 9 7 8 9 10 10 10 11 12 12
13 13 13 10 7 6 5 7 7 7 8 9 9 9 8 8 8 8 7 8 7 8 8 8 7 6 5 4 3 5 6 5 5 5 7 6 4 3 3 2 2 1 2 1 2 2 2 3 5 5 4 3 3 3 3 2 1 1 1 2 3 3 3 5 4 6 5 3 3 8 7 6 4 3 5 6 6 6 8 8 8 7 7 12 13 12 14 14
14 14 13 10 8 7 6 6 7 8 8 9 9 9 9 8 8 8 8 8 8 8 8 8 8 7 6 4 5 6 5 5 3 6 8 6 3 3 3 3 2 1 3 2 2 3 4 5 5 4 4 3 4 4 3 3 1 1 1 3 4 2 2 4 3 4 4 2 2 7 7 6 5 3 6 8 8 3 0 1 2 1 1 10 13 13 14 14
15 15 14 10 8 8 7 6 7 8 9 9 10 9 9 9 8 8 8 8 8 8 8 8 8 7 5 4 5 6 5 2 2 4 8 5 2 3 3 3 2 2 3 2 3 4 5 6 6 4 3 3 5 3 3 3 1 1 2 4 3 4 3 4 3 3 3 1 4 4 4 4 4 6 6 9 12 2 6 6 6 6 5 7 12 13 13 13
16 16 15 11 9 9 8 7 7 7 9 10 10 10 9 9 9 9 8 8 8 8 8 8 8 7 5 4 4 5 6 0 2 5 8 4 2 2 3 4 3 3 1 3 5 6 5 6 5 4 3 3 3 3 4 3 2 3 2 5 3 4 4 3 3 2 2 1 1 1 1 3 7 6 2 7 14 7 3 6 6 6 5 5 9 11 12 13
18 18 17 15 11 9 8 8 7 7 9 11 10 10 10 10 10 9 8 8 8 8 8 8 8 6 6 5 3 5 5 2 2 6 7 4 1 2 2 4 3 2 1 2 3 4 5 5 4 4 3 2 2 4 3 3 3 2 3 6 3 4 5 4 3 2 1 1 2 1 3 4 3 2 3 10 13 9 4 6 4 4 5 5 8 10 10 11
18 18 19 18 15 11 9 9 8 8 9 11 11 10 10 10 10 9 9 8 8 8 8 9 8 6 7 5 4 5 3 3 5 8 6 4 3 3 3 2 2 1 2 1 1 2 4 3 3 2 1 3 3 4 2 3 1 2 5 6 5 5 5 4 4 3 2 1 1 3 5 3 1 3 8 13 8 3 4 4 4 4 5 6 7 9 10 10
18 19 19 19 17 13 10 9 9 8 9 10 10 10 10 10 9 9 9 8 9 8 9 9 8 7 6 5 6 4 2 4 7 8 6 4 4 4 3 3 2 1 2 2 1 1 1 1 4 1 2 4 3 2 1 2 2 5 7 7 6 6 5 3 3 4 2 2 1 5 5 3 3 2 7 4 2 4 4 5 5 5 7 8 8 8 9 10
18 19 19 18 17 15 11 10 10 9 9 9 9 10 9 9 9 10 9 9 9 9 9 8 8 8 5 6 7 3 3 4 8 8 6 5 4 3 2 4 4 1 2 5 4 4 3 4 5 1 1 4 5 4 3 1 2 5 7 7 6 4 5 3 3 4 2 2 1 5 6 4 5 6 10 3 6 4 4 6 6 6 7 8 8 7 7 9
19 19 18 17 17 15 11 10 10 10 9 9 9 9 9 9 9 10 9 9 9 9 9 8 8 7 4 6 4 1 4 5 8 9 6 5 5 4 4 4 4 1 2 6 6 5 6 4 1 1 2 4 6 5 4 1 2 5 4 5 7 4 4 5 3 3 2 1 1 3 7 9 10 12 11 6 6 4 4 6 6 7 7 7 8 7 7 8
19 19 18 17 16 14 12 11 11 9 8 8 8 8 9 9 9 10 10 9 9 9 9 8 8 5 4 5 1 3 4 6 8 8 7 7 6 7 7 6 5 3 4 8 7 5 6 3 1 3 3 1 3 3 4 3 2 5 3 2 5 5 5 6 4 2 3 1 1 3 5 5 10 13 6 7 6 4 5 7 6 7 7 7 7 7 7 9
20 19 19 18 16 14 12 12 11 9 8 8 7 7 8 9 9 10 10 10 10 9 8 8 7 4 4 2 3 2 5 8 8 7 9 10 8 9 9 8 8 8 9 12 10 8 8 4 4 7 3 3 5 4 6 5 2 4 3 2 3 4 3 6 4 4 5 2 2 4 5 5 3 6 7 5 5 5 6 8 7 7 7 7 7 7 8 9
18 18 18 18 17 15 13 12 10 9 9 7 7 7 8 8 9 9 10 10 9 8 7 7 6 3 4 2 2 3 6 7 6 6 10 11 7 7 8 9 12 12 13 14 11 10 7 3 4 6 3 3 5 6 6 5 3 3 3 3 4 4 3 6 3 3 2 2 5 6 4 7 4 5 6 3 5 6 8 8 7 8 8 8 7 7 8 8
17 16 17 18 16 15 13 11 10 10 8 7 7 7 7 8 8 9 9 8 8 8 5 4 6 3 4 3 3 3 4 4 6 8 11 10 5 6 10 10 10 10 10 11 10 8 5 4 2 1 3 3 5 5 5 4 3 4 4 3 4 5 3 5 3 1 1 2 7 9 5 5 2 4 6 4 5 6 6 7 8 8 8 8 7 7 7 7
15 15 16 17 16 14 13 11 11 10 8 8 8 7 7 7 8 8 7 8 7 6 4 1 4 3 3 3 4 4 5 4 6 7 9 8 6 8 9 7 6 6 7 7 6 3 3 3 1 1 2 4 4 3 4 4 4 5 5 3 3 4 3 2 3 2 2 3 6 9 9 10 8 4 3 7 8 7 7 8 9 9 9 8 8 8 8 8
14 14 15 16 16 14 12 12 11 9 9 9 8 8 9 8 9 8 7 9 8 6 1 1 3 4 3 4 4 4 7 7 7 7 7 7 8 7 3 4 6 7 8 5 2 1 0 1 2 2 3 3 3 5 5 2 2 3 5 4 3 4 5 3 2 3 3 5 6 8 10 13 14 12 11 9 10 10 10 11 10 11 11 10 9 9 9 9
15 14 15 16 16 14 12 12 11 9 8 9 10 13 12 10 8 6 5 7 7 4 1 4 7 3 2 6 6 6 8 9 9 6 5 7 8 6 3 5 6 5 6 4 2 1 1 2 2 3 5 6 6 6 3 3 4 2 1 3 3 2 4 1 4 3 1 4 7 10 12 14 14 13 13 12 10 11 12 11 11 10 11 10 10 9 9 10
15 13 15 16 16 15 12 12 10 9 9 11 12 12 9 7 6 4 5 5 4 0 3 3 8 2 4 6 8 11 11 8 5 4 6 9 8 7 6 5 5 4 4 3 3 2 1 3 5 5 3 5 7 3 2 4 4 2 2 3 3 3 2 4 6 3 1 4 8 9 11 15 15 13 13 13 12 13 13 13 12 12 11 10 11 11 10 10
15 12 14 16 16 14 13 12 10 11 12 11 10 6 5 9 6 5 8 5 1 3 5 2 2 3 5 7 10 11 8 4 2 4 8 9 7 6 7 6 6 6 2 3 4 2 1 5 5 2 3 3 3 3 3 2 1 2 3 3 3 4 2 4 5 2 1 2 7 8 11 15 16 14 13 13 14 15 16 15 15 15 13 10 12 13 11 8
15 14 14 15 16 15 13 11 10 12 13 10 9 6 2 4 3 7 9 5 3 2 3 1 2 5 5 6 9 5 3 5 5 7 8 8 8 6 6 7 9 6 5 5 3 3 4 6 3 5 6 6 5 3 2 1 1 2 3 2 3 2 1 3 5 3 2 2 6 8 10 14 17 16 16 17 16 15 15 15 15 15 14 13 12 11 10 9
16 15 15 15 15 14 13 11 10 12 11 9 10 7 3 0 4 11 8 4 6 3 0 3 2 6 6 4 6 4 4 7 7 10 9 9 8 4 6 10 9 6 7 8 6 5 5 4 4 6 5 5 4 3 3 2 3 4 3 3 3 0 1 1 2 2 4 3 6 10 9 12 15 15 16 17 14 12 12 14 15 14 14 14 12 9 9 9
17 16 16 15 15 13 12 11 9 9 11 10 11 9 3 3 8 12 6 1 5 3 1 1 1 4 6 4 6 7 3 2 4 10 10 9 7 3 5 9 8 6 7 10 9 8 3 3 3 4 4 5 5 5 5 4 4 5 5 5 4 1 1 2 2 3 4 3 3 8 9 8 9 10 9 6 5 7 9 11 13 14 13 12 10 8 8 9
17 17 17 15 14 14 11 9 8 9 10 9 12 13 7 5 8 10 4 2 4 3 1 2 1 4 5 4 6 5 2 2 2 5 9 7 4 4 4 2 4 8 9 10 10 9 2 4 3 6 5 5 6 5 7 6 4 5 6 7 7 3 2 2 5 5 5 3 1 4 7 4 2 4 5 3 3 5 6 9 12 12 11 10 9 8 8 9
18 18 19 17 14 15 11 6 8 10 10 8 12 14 10 5 7 6 3 3 5 4 4 5 4 6 8 6 6 4 3 4 2 3 6 3 1 2 3 2 1 4 7 7 5 4 2 3 2 5 6 5 5 5 6 6 5 5 2 3 5 2 2 3 4 3 4 4 0 1 5 6 4 7 11 8 7 7 6 9 12 11 8 7 7 6 6 7
21 18 17 17 17 17 10 2 8 12 8 8 14 14 10 7 6 3 3 3 5 5 7 4 2 7 9 6 8 7 3 6 6 3 3 1 0 0 2 6 4 1 3 4 2 1 5 5 3 5 6 6 6 4 5 8 6 2 2 3 2 3 2 2 3 3 4 6 3 4 4 7 8 6 9 11 9 7 8 11 12 10 5 4 4 4 4 4
24 21 18 18 19 19 8 2 9 12 5 8 16 15 10 8 5 2 4 5 3 5 5 3 3 6 7 3 5 4 2 6 7 3 3 2 0 1 3 7 7 6 6 4 4 1 4 6 7 8 8 6 4 0 2 9 6 1 2 2 3 2 1 1 2 4 3 6 5 4 5 6 8 2 3 8 9 7 10 13 12 6 1 3 2 2 3 2
24 23 21 19 19 19 11 2 6 10 6 8 16 15 11 8 4 3 5 5 3 4 2 4 5 5 6 5 5 3 3 2 1 3 5 2 1 0 2 3 3 6 6 3 2 2 3 1 3 6 6 4 3 5 3 3 2 3 4 4 6 3 2 1 3 3 3 6 6 5 7 4 9 4 5 6 7 8 10 10 6 2 4 3 2 3 3 3
26 24 22 21 20 20 15 10 11 11 7 7 12 14 11 6 4 7 7 5 5 4 2 4 6 8 12 11 7 5 5 2 3 6 6 4 3 0 1 0 1 5 4 2 1 3 3 2 1 2 1 2 6 6 5 3 4 7 7 5 4 3 1 1 2 1 3 6 4 3 7 4 7 4 7 6 6 8 7 6 4 3 4 4 3 4 3 3
28 26 24 24 22 20 15 9 13 15 9 7 12 13 8 4 4 9 7 2 3 4 4 5 8 12 17 16 9 7 6 4 6 10 6 4 5 4 4 3 1 3 3 4 2 3 3 2 2 1 1 3 7 6 5 3 3 4 4 4 2 2 2 3 3 2 5 6 0 2 1 4 7 4 5 4 2 3 3 3 3 2 3 3 4 4 4 4
28 26 25 25 21 20 15 5 7 13 10 9 13 9 6 6 5 9 6 3 3 6 8 9 10 13 17 16 10 9 9 7 8 10 8 8 7 7 9 7 6 5 5 6 5 3 3 4 5 4 0 3 5 5 4 2 2 3 4 5 4 4 3 4 5 4 5 3 2 2 2 4 10 8 3 4 4 4 3 1 1 1 1 2 4 5 5 4
31 29 27 26 22 20 19 10 4 10 12 11 10 6 6 8 7 9 9 5 3 3 7 10 11 13 16 14 9 11 9 7 9 9 8 10 8 8 11 10 9 7 4 6 7 4 3 2 6 6 2 5 7 5 4 4 6 7 7 7 6 5 5 6 6 3 4 1 2 1 1 5 10 7 7 11 10 7 4 3 4 4 4 3 4 6 5 6
32 33 30 27 25 19 19 17 8 8 13 10 6 7 9 9 8 12 13 6 3 3 5 10 13 14 15 10 8 12 7 4 10 8 6 9 7 8 11 10 10 6 1 5 6 6 6 3 6 9 4 8 11 6 2 5 8 9 7 6 6 6 6 6 4 3 3 1 1 1 2 5 4 2 1 3 1 1 2 4 5 5 5 3 3 5 6 6
32 34 33 29 27 20 17 20 14 10 12 8 5 9 10 9 9 13 12 5 5 5 6 10 13 13 12 5 6 11 4 2 9 8 6 9 8 8 10 9 11 10 6 6 4 5 8 5 4 4 1 9 12 3 0 3 5 6 4 4 6 5 4 3 1 1 2 2 2 4 4 6 4 7 8 6 4 5 5 5 6 6 7 6 6 6 7 7
35 34 32 29 28 23 19 20 16 13 11 7 7 9 9 9 9 9 8 7 7 9 11 10 9 9 10 5 5 8 1 1 8 7 5 8 8 8 10 8 12 14 10 7 3 4 5 2 3 2 1 5 4 1 0 0 2 4 5 5 2 2 2 2 1 2 2 5 5 5 7 8 7 12 12 11 12 11 9 7 7 7 8 8 7 7 6 7
32 31 26 25 28 27 24 20 16 14 8 4 8 10 9 10 9 6 7 11 12 14 12 9 6 7 9 6 6 9 5 3 7 7 6 7 6 8 11 8 10 16 15 11 5 3 5 2 2 1 1 2 3 3 1 2 2 2 4 4 3 2 1 3 4 2 3 8 6 6 10 9 6 7 2 5 7 7 8 9 8 8 9 8 8 7 4 6
20 19 15 21 28 28 25 21 16 12 5 2 8 11 11 11 8 6 9 13 14 14 9 7 6 7 9 8 8 12 10 7 8 7 6 6 5 10 13 8 8 16 18 13 5 1 4 4 0 1 0 3 2 2 3 1 1 1 2 1 2 2 4 5 5 5 6 8 6 7 11 9 9 9 4 3 5 5 7 9 9 11 11 8 8 8 4 6
11 8 5 15 25 24 24 23 14 8 4 5 8 9 10 9 4 6 12 14 12 11 10 8 6 6 8 8 8 12 12 10 10 8 7 6 5 9 14 10 8 14 16 12 6 2 4 5 3 1 1 3 4 4 6 5 3 2 3 2 1 2 3 4 5 4 5 7 6 7 8 9 9 9 9 10 9 7 7 8 9 10 10 9 8 6 4 5
8 3 1 13 23 23 25 21 10 5 5 7 8 5 5 4 2 2 7 10 8 7 8 10 9 7 8 7 7 9 10 9 10 9 7 8 6 6 11 11 7 9 13 13 8 3 4 4 3 1 0 2 5 6 8 8 7 5 5 6 5 2 0 2 3 3 3 5 6 7 8 9 5 3 6 7 6 7 7 6 7 7 9 9 4 1 4 5
5 3 2 14 26 27 23 13 5 6 6 7 8 3 1 0 2 2 1 2 1 1 2 8 11 9 7 7 6 7 7 7 9 8 6 9 9 5 8 11 9 9 10 10 9 7 5 4 4 4 3 6 4 1 3 4 5 7 8 9 9 7 4 4 5 3 1 4 6 5 9 11 3 2 2 4 3 4 4 4 6 6 7 6 1 4 3 4
4 4 4 18 30 29 18 4 1 5 6 5 4 1 1 1 2 3 2 1 1 1 0 6 11 9 7 8 8 8 8 6 8 8 6 9 12 8 8 12 13 14 11 7 8 7 3 3 5 5 4 4 2 4 2 0 1 3 5 7 8 8 7 7 7 4 3 4 5 4 8 10 2 3 0 1 1 1 1 1 4 5 3 1 4 3 1 1
4 4 5 21 35 28 12 1 1 3 5 2 2 2 2 1 1 2 4 5 3 2 3 4 8 9 8 9 8 9 9 6 8 11 8 8 11 7 9 13 14 15 10 5 5 4 3 2 6 6 3 2 4 3 2 2 1 5 5 4 5 7 9 7 4 2 3 5 6 5 8 10 2 4 2 1 2 1 1 1 3 4 3 2 2 1 1 2
4 2 3 19 36 26 8 3 4 5 6 3 0 1 1 2 1 2 4 7 4 4 7 5 5 7 7 8 9 11 12 7 8 12 9 7 6 2 8 15 15 13 9 6 6 6 4 5 6 6 5 4 4 4 3 2 3 5 6 6 8 10 10 4 1 2 4 10 12 8 9 10 2 3 1 1 2 3 3 2 2 3 4 3 2 1 2 3
2 2 1 12 24 17 5 4 5 5 7 7 6 6 4 2 2 2 2 3 1 2 6 4 4 4 5 7 8 11 14 11 8 10 10 8 3 2 5 14 15 13 8 4 7 8 6 6 8 7 8 8 7 6 5 6 5 4 7 11 13 14 14 8 3 5 9 13 13 9 11 12 4 2 4 4 4 5 4 3 4 4 4 4 2 3 3 3
2 2 2 5 9 8 4 5 6 4 6 7 5 5 7 7 3 1 2 3 2 2 2 1 3 5 6 9 10 10 14 14 9 7 9 10 4 2 4 9 13 14 6 5 6 7 3 5 10 12 12 12 9 4 6 10 9 8 11 14 15 16 17 11 6 9 11 10 10 12 14 16 13 7 6 5 6 6 5 5 5 4 4 4 4 4 3 3
1 2 4 4 3 5 6 6 8 6 7 9 6 5 9 11 6 1 1 3 1 1 2 2 2 8 9 12 12 10 13 15 11 7 9 9 4 4 2 3 7 8 7 5 5 5 1 5 12 15 15 16 14 7 10 14 12 13 14 15 17 17 17 14 12 15 12 7 11 15 13 15 21 17 11 10 7 6 6 7 5 4 5 4 3 4 4 5
2 2 1 1 1 5 7 9 12 11 11 11 6 4 10 13 11 7 4 3 1 1 2 2 5 9 10 12 11 9 10 12 11 10 9 6 5 5 4 2 4 4 5 5 5 4 2 5 10 14 15 18 18 11 11 12 10 12 14 16 18 18 18 18 19 20 15 9 15 17 11 14 21 17 14 15 11 9 10 9 6 6 6 4 4 4 4 5
1 2 2 2 2 3 5 10 15 14 13 13 7 6 10 13 14 11 5 3 3 4 4 5 8 9 8 8 8 8 10 10 11 11 7 5 5 5 4 3 4 4 4 5 4 2 3 6 10 12 13 16 20 16 12 11 9 10 13 15 17 20 22 22 21 22 20 17 19 20 16 18 20 16 12 12 9 8 8 6 6 8 8 8 10 11 9 8
1 1 1 1 2 2 2 7 13 11 10 11 9 8 10 13 16 13 8 7 7 6 8 11 13 9 7 6 5 5 7 8 9 9 5 6 6 6 5 4 4 4 4 4 2 1 4 6 8 8 8 12 17 16 12 10 10 11 10 11 17 20 22 22 19 17 17 18 21 21 20 20 17 11 11 10 6 5 6 7 9 10 11 13 15 16 15 13
2 2 0 2 3 3 3 5 9 8 8 9 9 8 11 15 16 13 9 8 9 8 11 16 17 10 8 8 7 8 8 4 2 1 2 3 4 3 3 3 4 5 6 4 1 2 4 3 2 3 6 12 14 12 9 5 4 9 12 16 20 20 17 15 14 14 15 16 19 19 17 17 10 3 7 10 8 8 10 11 11 11 13 16 17 16 15 14
4 1 1 1 2 4 4 3 6 7 6 8 10 10 11 13 13 11 7 6 10 11 11 15 16 10 7 11 12 13 10 3 4 5 4 3 3 3 2 2 3 4 6 5 2 1 4 4 3 4 6 11 9 4 6 5 1 7 15 18 18 16 12 10 13 17 18 16 14 13 14 15 9 3 7 10 9 11 12 11 11 13 16 17 16 15 14 14
Wind_Direction
208 214 216 197 191 193 190 194 196 206 208 203 201 195 195 195 192 195 196 201 200 196 199 197 200 202 207 212 218 212 176 168 178 195 203 142 120 124 118 107 87 97 133 149 177 200 206 191 171 186 187 141 26 93 137 6 355 243 217 230 234 188 163 143 164 139 46 125 144 157 175 195 167 158 164 155 215 211 180 200 180 161 146 101 108 123 134 144
220 217 211 203 197 195 194 197 201 210 211 207 207 202 199 199 198 200 199 204 204 200 199 198 205 203 208 210 204 195 173 178 204 184 150 143 131 114 102 101 84 81 118 147 199 213 217 183 167 197 199 161 158 162 188 35 281 244 235 235 247 86 77 41 90 90 18 108 143 157 180 198 176 154 163 202 206 194 213 208 193 205 181 142 136 144 147 155
217 207 207 208 201 203 201 198 203 209 212 212 211 207 205 203 203 203 205 207 207 204 199 201 207 206 211 204 197 188 171 200 211 162 144 152 125 98 97 94 84 86 129 179 242 236 256 169 171 201 198 175 139 177 195 127 273 244 261 242 89 76 82 53 57 77 31 15 144 156 171 189 164 137 163 216 221 200 225 221 196 208 201 176 160 159 160 165
213 205 213 220 214 215 211 201 205 206 208 213 211 209 208 206 207 208 209 208 209 206 201 204 205 208 211 201 198 180 177 211 194 141 154 155 113 94 80 73 90 87 117 158 226 219 232 162 177 209 207 177 127 184 189 92 304 182 257 287 57 66 98 81 64 64 37 346 157 144 160 188 152 144 185 216 232 218 230 228 212 226 210 174 163 165 169 174
213 214 221 224 218 221 220 210 211 207 208 214 211 210 209 208 210 210 210 210 210 206 203 205 205 210 206 206 201 178 194 215 145 132 163 157 111 90 69 70 77 87 118 139 162 175 186 173 175 198 212 175 152 190 160 87 325 182 131 37 44 356 81 100 78 50 23 342 151 145 166 171 135 185 211 219 233 224 252 222 180 303 84 148 161 167 171 180
213 217 221 216 217 224 224 222 220 213 213 217 213 211 210 209 212 213 214 211 209 207 206 206 205 207 200 208 197 186 224 219 99 155 163 151 115 85 63 64 64 100 127 175 189 189 188 182 182 189 201 170 168 180 110 107 291 260 129 88 44 10 72 109 91 52 353 331 164 159 145 133 167 213 212 224 238 238 63 59 71 70 75 135 158 166 175 186
220 225 228 222 223 229 229 230 230 223 220 219 215 214 212 211 214 216 216 213 213 207 205 208 206 204 192 187 174 201 237 138 91 179 160 147 106 72 62 54 57 99 132 218 200 191 189 195 195 191 183 152 165 143 98 136 235 282 121 108 65 43 74 86 83 85 355 351 111 68 111 175 212 222 181 227 243 247 112 92 83 93 105 146 162 171 185 190
223 230 235 232 226 228 233 234 238 236 228 223 219 215 212 212 215 218 218 214 213 207 207 210 203 201 189 183 191 212 218 104 148 179 161 159 88 61 59 38 37 88 175 230 214 198 193 198 188 194 188 123 132 132 124 174 202 276 115 115 98 76 85 88 99 113 77 24 48 88 211 204 222 295 287 248 245 241 185 129 126 131 138 175 186 187 190 194
222 226 232 232 227 225 233 238 240 243 235 227 222 217 213 213 215 217 219 214 212 209 208 207 201 200 191 200 248 223 177 103 169 171 156 149 102 73 59 42 39 148 183 152 318 223 203 201 170 197 145 89 132 133 151 224 164 91 118 123 119 106 101 116 130 121 120 121 111 218 217 184 91 332 271 251 241 177 144 158 175 181 192 202 202 202 196 195
221 221 225 229 232 230 233 238 240 248 241 229 221 218 215 215 215 213 215 212 210 209 206 207 199 190 189 211 236 219 105 113 164 165 151 131 103 79 67 92 107 157 151 97 22 330 251 158 121 150 93 99 136 117 29 292 81 107 119 113 111 117 120 150 150 128 137 112 154 250 244 181 137 254 252 231 121 122 158 200 197 199 214 214 209 209 204 201
218 221 225 230 234 233 233 236 243 249 237 226 219 216 215 214 213 210 212 209 205 207 206 204 196 187 199 231 232 208 93 126 160 161 152 131 110 101 99 109 107 98 89 86 60 33 47 91 103 157 151 133 133 96 63 28 112 125 127 117 113 128 134 165 163 140 181 138 167 278 278 239 156 221 241 154 108 150 182 199 196 210 219 215 211 205 202 206
217 223 232 237 237 232 230 231 241 245 232 227 221 213 212 211 210 208 208 206 202 204 201 198 196 186 210 239 242 124 107 133 157 156 145 128 124 120 109 108 108 77 66 97 80 53 73 84 68 57 82 160 147 110 103 111 134 131 159 148 137 171 169 174 162 135 229 173 99 292 278 246 202 224 234 157 136 154 188 221 205 209 215 212 211 203 202 204
220 228 238 243 240 229 223 229 238 241 237 233 217 208 211 207 207 205 203 202 199 200 199 196 188 178 220 227 121 94 122 140 152 148 135 124 115 106 99 99 103 97 101 108 102 87 85 54 326 82 66 145 124 109 126 125 148 147 207 224 152 199 193 169 150 143 222 152 98 264 276 253 206 213 198 131 152 171 210 238 226 218 214 211 208 204 209 202
221 231 237 241 238 223 219 228 233 236 240 229 209 208 212 205 201 200 199 197 194 195 194 193 181 181 229 191 87 120 136 135 141 140 141 128 107 97 93 95 101 104 103 100 100 98 85 67 112 109 45 30 102 146 142 133 187 159 174 238 198 220 163 143 145 172 203 154 155 231 262 280 229 169 135 129 173 194 230 241 237 231 216 212 208 208 213 203
219 228 232 237 233 220 219 224 226 232 235 221 208 210 205 200 198 194 196 191 188 189 187 191 182 194 229 176 97 159 140 134 145 152 149 134 121 111 99 98 99 96 96 96 95 88 75 69 126 119 73 58 141 167 148 146 192 168 180 202 204 230 144 130 128 178 210 137 178 209 250 267 263 125 120 152 182 197 235 247 246 240 227 222 211 210 217 207
216 224 230 233 225 218 216 219 223 224 226 221 211 202 192 190 188 186 188 180 178 176 168 185 186 224 246 163 120 158 156 161 168 170 160 142 132 127 117 108 97 92 90 89 90 81 60 60 72 97 110 153 182 177 159 167 181 186 230 218 179 215 186 144 124 166 242 117 189 216 255 274 252 121 125 162 190 198 227 247 250 243 234 229 220 215 215 208
213 223 228 221 212 213 213 215 220 216 219 216 200 180 173 172 168 166 165 161 154 150 153 197 181 225 271 119 130 171 161 168 171 175 174 154 131 131 131 120 105 110 107 95 98 90 43 73 107 227 170 194 206 195 189 196 196 186 217 241 194 218 227 181 132 126 205 230 219 220 239 260 265 259 192 178 186 201 232 251 254 255 244 231 224 218 214 211
213 220 220 210 205 210 210 211 213 213 212 200 179 152 143 138 138 138 134 134 115 102 125 290 173 208 226 158 153 138 131 147 159 167 181 166 145 146 151 138 140 144 137 131 138 136 87 153 213 198 174 199 196 205 210 208 250 199 194 224 220 212 238 250 135 126 196 227 240 238 240 252 259 264 258 230 207 213 239 254 256 257 252 242 230 221 216 212
211 214 214 206 206 208 208 206 205 207 195 172 146 125 116 106 108 121 131 143 141 134 190 186 179 193 161 149 123 100 120 139 145 149 164 157 152 155 144 144 159 173 173 173 156 141 195 174 204 207 191 200 197 214 238 32 5 342 216 251 260 230 231 184 96 93 252 246 246 248 253 261 260 260 264 258 239 232 242 252 254 252 249 245 237 229 218 213
207 211 213 208 208 208 206 201 200 198 176 154 142 129 123 132 137 151 172 191 193 13 347 186 182 163 88 117 114 115 119 126 142 147 156 158 158 157 147 152 169 194 210 189 133 124 280 208 202 216 213 202 192 189 25 39 18 337 320 280 263 271 253 106 95 93 21 278 260 254 261 269 271 267 266 266 261 255 249 247 248 245 240 238 236 233 222 215
206 209 210 207 204 200 198 197 198 192 174 161 168 176 172 169 175 165 164 190 179 27 355 8 110 89 88 114 134 137 125 118 158 152 160 167 176 179 164 171 189 191 177 109 108 114 236 232 212 183 60 76 123 103 65 49 358 271 267 272 248 253 249 99 93 121 121 277 269 274 276 272 274 273 269 264 257 254 251 249 251 249 243 237 234 234 227 210
203 205 203 198 194 188 188 193 197 190 177 177 202 235 242 177 177 151 155 190 180 73 354 8 70 91 89 120 150 169 167 146 151 159 168 174 192 203 169 183 208 184 138 136 150 158 210 229 181 97 82 80 86 104 138 188 230 236 246 266 260 271 281 104 96 115 168 244 281 297 293 278 276 274 267 260 252 249 250 251 256 258 254 247 238 237 231 205
200 202 198 188 184 182 185 191 192 188 185 193 208 231 273 6 142 157 171 213 177 156 228 202 186 131 117 135 168 201 186 155 164 171 173 180 193 209 174 191 209 166 156 186 197 202 212 211 122 103 121 122 110 141 166 184 217 226 236 250 248 355 320 231 106 133 200 230 299 300 289 275 271 267 261 258 253 252 252 251 255 257 256 255 251 248 238 217
197 197 190 181 180 179 183 189 187 191 201 213 223 228 226 125 148 173 196 277 169 162 169 192 310 162 144 132 176 203 198 137 165 162 170 188 178 174 190 200 203 176 185 201 209 224 210 90 99 127 151 171 159 164 188 212 224 218 220 239 259 324 293 265 357 318 240 204 290 292 285 269 252 248 254 254 250 253 245 243 250 249 247 253 255 247 236 227
195 197 190 181 183 179 175 188 196 199 198 212 227 220 205 146 155 180 201 253 193 147 140 196 225 190 158 130 172 195 163 109 78 130 163 196 184 159 183 210 211 204 203 198 212 235 199 92 144 149 151 191 188 188 203 218 242 222 208 228 254 311 338 295 338 329 279 226 169 314 304 285 205 232 245 190 178 224 215 225 245 247 239 235 235 232 227 227
194 199 197 185 180 175 171 191 199 188 181 204 221 210 208 190 158 176 197 228 219 161 152 177 172 176 166 154 157 150 174 172 61 76 145 185 289 165 176 162 215 231 200 181 213 250 129 115 167 157 156 173 195 219 200 202 247 241 216 255 247 267 336 299 315 309 290 292 169 78 295 286 274 251 242 221 215 234 231 239 251 254 243 221 212 220 222 220
193 190 196 188 182 178 170 174 173 167 170 207 214 206 211 202 155 159 194 225 230 164 149 166 187 175 161 156 165 164 182 145 115 104 127 127 188 35 210 176 167 240 163 146 212 208 130 148 167 162 165 171 197 226 182 192 234 246 17 348 206 196 228 256 293 268 289 319 293 177 222 273 280 258 233 221 222 240 246 248 254 257 247 201 192 205 203 201
198 189 189 189 189 189 180 62 166 174 182 190 197 202 201 187 156 152 208 225 202 143 148 153 130 144 134 133 178 173 108 130 143 147 87 33 154 216 231 193 188 185 163 178 212 160 117 164 176 170 177 191 193 351 157 196 219 33 41 22 91 112 173 187 275 276 296 317 288 182 174 264 281 274 167 193 199 212 233 244 252 251 152 139 167 141 121 139
202 194 192 192 195 202 210 262 205 202 212 183 188 195 182 172 175 177 215 228 162 125 140 144 138 142 140 152 169 145 104 126 178 133 127 109 56 327 241 204 171 146 147 220 223 56 54 172 198 183 191 199 122 49 12 220 198 134 132 88 88 98 83 128 266 291 295 282 268 184 167 259 290 264 149 163 191 205 224 235 238 139 104 107 108 108 118 135
200 194 194 192 194 207 216 245 246 222 214 197 180 173 163 163 189 186 200 214 167 134 96 144 165 161 157 165 175 176 164 103 75 130 143 154 137 109 277 62 93 126 140 256 22 82 90 68 317 231 190 118 98 71 25 23 107 141 145 115 108 143 130 206 245 294 274 262 267 177 172 206 291 272 151 163 201 203 206 198 166 110 102 109 105 117 139 135
200 193 194 193 195 202 202 234 243 220 215 195 159 151 158 172 198 196 191 185 172 152 136 158 159 156 168 176 172 173 169 121 135 154 147 150 162 169 171 164 163 149 175 219 190 135 144 152 154 126 63 119 113 89 46 45 133 154 163 162 181 200 181 213 202 176 245 247 295 10 287 215 252 249 134 143 217 207 195 161 152 120 99 117 127 133 132 124
198 192 191 194 198 201 198 219 241 216 208 169 153 154 173 176 206 218 188 125 182 176 163 168 163 166 179 181 170 165 165 148 161 175 168 171 181 181 191 193 173 180 218 210 185 151 184 187 134 105 5 194 158 121 87 77 191 203 194 180 210 226 205 225 209 191 236 232 104 22 344 245 246 253 238 239 244 220 216 205 208 260 244 164 153 152 144 139
198 192 189 193 197 202 209 224 245 212 192 162 164 182 188 184 202 214 192 158 171 159 144 155 161 169 177 180 174 162 164 165 171 183 180 179 191 195 204 210 191 200 237 195 179 167 185 176 137 143 184 214 205 180 153 181 195 199 196 186 203 215 222 233 219 222 247 202 74 63 130 250 263 274 256 243 236 222 224 241 249 260 258 225 171 162 153 152
201 196 193 197 201 203 211 219 223 195 179 170 182 187 190 200 198 205 207 179 123 87 110 141 149 163 176 181 167 158 163 179 170 174 178 181 200 204 203 212 207 212 229 185 189 187 208 234 169 169 161 179 198 217 202 171 181 199 206 203 214 221 238 245 233 255 269 124 116 157 192 239 261 351 304 255 262 240 256 252 246 259 260 241 203 185 170 169
203 197 196 199 205 207 210 216 214 182 175 181 190 185 195 201 192 206 208 158 120 112 112 138 147 160 176 175 160 166 179 202 175 178 182 187 204 203 198 202 201 203 201 203 199 183 218 246 148 139 118 174 184 210 2 144 173 193 197 219 233 238 252 266 301 353 6 353 220 201 241 249 267 300 278 250 237 223 212 213 224 247 254 245 238 220 194 184
199 195 197 198 204 209 210 212 204 180 180 191 190 193 205 202 199 209 184 134 137 133 126 141 153 164 174 167 176 183 193 65 171 182 193 203 222 215 207 202 192 196 198 198 191 175 215 251 102 94 27 166 178 357 56 227 194 168 175 206 217 7 321 245 219 90 86 273 250 209 248 269 287 289 265 232 234 233 214 202 202 225 239 237 242 237 202 181
191 188 192 195 203 209 208 204 189 178 187 213 202 200 208 212 216 209 151 134 142 139 137 154 168 181 177 167 187 184 168 129 165 191 191 188 223 215 207 210 193 196 202 205 216 206 216 246 99 157 173 112 2 351 39 5 4 155 186 188 124 48 328 239 246 238 213 249 256 218 242 266 272 273 261 162 209 224 210 209 210 221 229 227 238 246 204 159
183 181 188 196 201 204 202 192 175 171 178 226 220 212 210 212 211 188 148 134 141 146 157 169 168 191 185 173 184 177 172 170 170 192 189 174 211 199 190 201 200 201 204 207 223 207 205 228 129 37 352 103 81 243 200 133 48 358 285 193 134 222 217 200 221 245 239 243 257 243 248 259 245 246 263 206 211 208 191 198 211 225 230 226 234 239 193 141
173 181 204 196 197 197 188 178 162 161 170 194 218 218 210 204 188 164 150 142 149 160 179 183 159 191 200 179 170 167 177 183 166 178 194 184 199 189 183 188 194 203 201 194 202 168 173 221 221 32 358 110 132 208 207 173 131 359 303 240 220 263 240 214 207 227 246 242 254 264 260 257 245 248 260 251 242 234 212 203 210 222 232 236 239 235 173 143
164 194 220 180 192 191 175 162 146 158 182 201 218 224 211 197 95 144 151 144 159 171 193 193 162 171 196 174 152 161 182 191 174 184 201 184 191 196 190 187 172 184 191 189 198 177 153 218 219 126 355 185 182 204 205 187 171 187 216 208 196 187 265 283 239 225 248 246 250 263 264 263 260 249 254 253 244 228 216 212 214 219 235 238 229 149 118 138
148 213 190 170 184 179 163 152 147 169 186 220 230 238 260 125 112 187 200 97 143 128 207 202 179 168 169 164 162 158 175 192 184 191 201 189 203 214 187 180 152 141 164 184 201 196 177 201 198 165 190 208 202 187 208 199 182 192 203 204 203 190 177 222 226 200 210 249 249 258 267 268 262 106 243 251 229 210 192 204 224 232 242 239 138 93 124 154
157 204 176 169 174 165 153 153 183 176 200 219 225 238 32 38 139 180 211 228 213 65 318 213 195 176 160 174 178 155 162 187 186 195 212 206 213 215 179 172 157 147 152 171 194 194 165 180 207 199 197 197 129 61 61 2 292 249 236 223 215 198 191 212 220 194 175 227 254 271 271 270 257 100 121 218 133 39 55 246 251 255 264 5 57 67 99 197
187 182 152 168 171 162 149 172 151 197 223 202 54 33 41 29 111 149 189 199 190 162 176 202 194 187 181 182 174 159 168 186 191 197 213 217 219 211 171 168 159 155 160 159 160 155 112 169 218 221 204 140 101 104 114 74 265 251 247 234 226 215 208 214 236 241 188 204 224 235 250 261 266 88 77 79 82 13 325 269 258 276 311 15 15 12 84 273
193 158 112 171 173 168 162 176 167 201 219 207 222 247 332 353 247 183 192 197 199 189 189 191 189 193 188 177 175 175 177 185 201 202 209 215 216 175 162 170 164 166 182 180 160 158 164 189 207 223 227 201 174 191 196 167 201 233 232 215 216 218 212 204 277 276 246 228 224 227 245 253 257 89 161 182 162 208 223 205 220 263 288 304 307 284 190 217
181 165 50 177 178 179 184 164 156 190 205 205 224 231 231 251 248 281 253 215 282 232 202 192 175 174 162 169 186 189 187 199 209 201 208 210 185 71 171 174 175 188 197 164 155 163 173 185 186 201 224 222 217 216 199 178 176 210 226 214 210 212 208 204 208 220 237 240 230 228 245 254 259 131 182 192 188 207 206 194 213 233 251 264 265 252 238 225
184 198 160 170 187 199 192 146 145 176 190 187 210 231 220 218 225 295 274 255 310 290 255 351 154 174 164 172 193 198 197 210 216 190 202 207 177 115 182 181 192 199 171 101 146 167 175 201 194 201 219 225 232 227 144 140 155 190 209 205 205 209 208 210 220 220 230 246 242 232 238 256 261 228 200 206 196 202 209 200 211 226 228 237 230 219 229 238
223 230 177 162 194 205 189 163 166 184 185 180 189 197 204 216 222 175 211 231 250 250 269 338 187 194 183 178 194 202 197 209 219 200 196 197 158 101 125 196 210 189 133 122 175 169 164 227 210 215 228 234 243 232 149 149 174 194 197 197 201 205 204 205 219 225 222 231 250 240 221 241 258 248 235 241 212 186 215 209 201 223 228 224 212 194 204 225
221 273 218 210 241 198 192 182 179 186 184 181 188 191 196 207 208 201 210 211 237 267 223 247 238 222 205 190 193 200 195 203 218 216 202 182 139 123 129 188 221 175 138 171 192 161 174 229 222 222 232 239 246 237 177 172 189 191 189 194 197 199 200 206 220 227 219 213 246 251 220 224 252 253 242 247 234 205 215 212 206 233 244 238 232 221 214 219
217 281 293 328 308 210 194 177 176 184 184 178 187 200 196 202 204 204 194 157 203 229 200 216 232 227 225 215 206 205 194 194 216 220 195 144 143 155 156 181 206 192 174 186 189 161 196 226 227 226 234 241 244 240 214 203 209 203 198 196 195 197 201 207 217 223 221 224 242 254 252 245 254 257 252 258 254 226 223 228 238 253 259 256 253 249 240 231
222 274 233 231 264 265 223 172 172 183 183 176 192 204 196 203 206 202 189 172 190 201 198 219 229 221 222 233 239 236 213 208 229 228 177 156 182 186 184 185 168 164 185 193 193 212 214 222 225 224 238 246 244 244 238 228 230 230 222 211 209 209 207 208 214 218 221 231 240 250 259 258 256 257 255 255 250 231 239 251 256 261 264 261 258 256 254 251
230 0 346 209 221 209 209 184 174 186 188 179 193 198 196 209 207 196 196 197 197 195 195 213 223 220 219 228 236 245 246 251 279 356 101 167 196 187 199 188 134 145 180 190 174 188 196 211 222 193 227 245 245 240 228 218 248 253 246 234 225 220 215 208 208 209 209 219 232 241 251 255 254 247 240 238 231 234 245 253 256 259 261 262 262 260 260 262
207 344 342 260 225 187 194 207 185 188 192 188 196 193 193 209 203 183 185 204 209 210 202 209 218 214 215 226 229 236 246 256 87 85 72 75 77 60 57 89 102 137 170 173 157 153 184 208 211 172 215 248 252 211 162 131 72 251 243 237 227 222 220 208 208 216 213 210 222 228 237 250 258 255 241 240 238 243 251 253 251 254 258 261 264 265 264 264